Location: Taylor Dark Sky Site
(39.1017°N, 87.9564°W)
Time: 19:48:37
(UTC-05:00)

Amateur Radio Satellites - All Passes

Search period start: 22 October 2017 19:18
Search period end: 23 October 2017 19:18
Location: Taylor Dark Sky Site, 39.1017°N, 87.9564°W

Satellite Date Start Highest point End Downlink Frequencies (MHz)
Time Altitude Azimuth
CUBEBUG 2 22 Oct 19:19:44 19:24:21 60° 74° (ENE) 19:29:03 437.445
XW-2C 22 Oct 19:20:38 19:22:31 13° 268° (W) 19:24:25 145.795 - 145.815
XW-2A 22 Oct 19:24:27 19:27:37 35° 73° (ENE) 19:30:46 145.665 - 145.685
ZACube-1 22 Oct 19:25:24 19:28:51 21° 68° (ENE) 19:32:18 437.345
CUTE 1.7 + AOD 2 22 Oct 19:29:09 19:33:19 60° 260° (W) 19:37:29 437.475
SEEDS 22 Oct 19:31:07 19:35:18 85° 78° (ENE) 19:39:29 437.485
KKS-1 22 Oct 19:33:53 19:35:46 13° 297° (WNW) 19:37:40 437.445
HO-68 22 Oct 19:46:02 19:52:58 53° 259° (W) 20:00:00 435.675
AAUSAT CUBESAT 2 22 Oct 19:47:13 19:51:13 54° 74° (ENE) 19:55:13 437.432
O/OREOS (USA 219) 22 Oct 19:50:50 19:54:57 35° 104° (ESE) 19:59:08 437.305
UWE-3 22 Oct 19:52:20 19:56:58 77° 77° (ENE) 20:01:40 435.000/436.395/437.385
YUBILEINY 22 Oct 19:54:13 20:02:28 42° 74° (ENE) 20:10:40 435.215
Oscar 11 22 Oct 19:57:20 20:00:58 27° 70° (ENE) 20:04:35 .
BEESAT 2 22 Oct 19:57:58 19:58:27 10° 41° (NE) 19:58:56 435.950
STARS 22 Oct 19:58:30 20:01:12 16° 295° (WNW) 20:03:52 437.465
FO-29 22 Oct 20:00:16 20:02:58 12° 88° (E) 20:05:43 435.910
BEESAT 3 22 Oct 20:06:01 20:09:38 32° 52° (NE) 20:13:09 437.485
STRAND 1 22 Oct 20:34:00 20:39:11 81° 285° (WNW) 20:44:19 437.568
AO-73 22 Oct 20:36:29 20:41:02 75° 258° (WSW) 20:45:37 145.935
DELFI C3 22 Oct 20:51:37 20:54:33 21° 69° (ENE) 20:57:29 145.870
EO-88 22 Oct 20:57:53 20:59:09 11° 66° (ENE) 21:00:26 145.990 - 145.960
CUBEBUG 2 22 Oct 20:59:08 21:01:19 13° 270° (W) 21:03:32 437.445
XW-2A 22 Oct 20:59:33 21:00:27 11° 268° (W) 21:01:21 145.665 - 145.685
ZACube-1 22 Oct 21:00:40 21:04:52 36° 263° (W) 21:09:06 437.345
AO-85 22 Oct 21:08:43 21:12:55 35° 53° (NE) 21:17:24 145.980
Max Valier Satellite 22 Oct 21:11:53 21:14:57 24° 70° (ENE) 21:18:01 145.860
AAUSAT CUBESAT 2 22 Oct 21:25:57 21:26:58 11° 270° (W) 21:27:59 437.432
O/OREOS (USA 219) 22 Oct 21:30:52 21:34:27 22° 302° (WNW) 21:38:03 437.305
BEESAT 2 22 Oct 21:32:46 21:36:50 84° 59° (ENE) 21:40:48 435.950
Oscar 11 22 Oct 21:33:27 21:37:01 25° 265° (W) 21:40:36 .
FO-29 22 Oct 21:41:36 21:48:44 75° 103° (ESE) 21:56:28 435.910
BEESAT 3 22 Oct 21:44:03 21:46:56 20° 249° (WSW) 21:49:46 437.485
YUBILEINY 22 Oct 21:51:08 21:59:10 41° 273° (W) 22:07:12 435.215
ESTCUBE 1 22 Oct 22:24:36 22:27:13 15° 65° (ENE) 22:29:49 437.505/2401.250
DELFI C3 22 Oct 22:25:50 22:29:07 26° 264° (W) 22:32:26 145.870
EO-88 22 Oct 22:28:55 22:32:23 42° 261° (W) 22:35:53 145.990 - 145.960
UNISAT 6 22 Oct 22:35:45 22:40:20 65° 101° (E) 22:44:45 437.425
Max Valier Satellite 22 Oct 22:45:56 22:48:42 20° 265° (W) 22:51:29 145.860
RS-15 22 Oct 22:46:05 22:55:01 24° 100° (E) 23:03:57 29.354- 29.394
AO-85 22 Oct 22:49:16 22:53:14 27° 247° (WSW) 22:57:24 145.980
TIGRISAT 22 Oct 22:49:46 22:54:23 85° 105° (ESE) 22:58:49 435.000
PRISM 22 Oct 22:50:32 22:54:21 36° 98° (E) 22:58:11 437.425
LO-87 22 Oct 23:09:17 23:12:51 64° 76° (ENE) 23:16:26 145.935 - 145.965
FO-29 22 Oct 23:28:00 23:33:09 22° 298° (WNW) 23:38:37 435.910
VELOX 1 22 Oct 23:38:16 23:40:54 16° 65° (ENE) 23:43:33 145.980
ESTCUBE 1 22 Oct 23:59:14 00:03:35 49° 260° (W) 00:07:57 437.505/2401.250
SPROUT 23 Oct 00:06:05 00:10:09 44° 73° (ENE) 00:14:15 437.525
AIST 2D 23 Oct 00:06:13 00:09:41 80° 100° (E) 00:13:08 435.315
UNISAT 6 23 Oct 00:14:31 00:16:25 12° 298° (WNW) 00:18:17 437.425
PRISM 23 Oct 00:26:34 00:29:19 18° 294° (WNW) 00:32:05 437.425
EO-79 23 Oct 00:33:49 00:37:59 51° 100° (E) 00:42:05 145.935-145.965
DX 1 23 Oct 00:35:25 00:38:05 16° 65° (ENE) 00:40:45 434.975-435.025
POLYITAN 1 23 Oct 00:39:21 00:43:33 59° 100° (E) 00:47:43 437.675
50 SAT 23 Oct 00:44:37 00:46:52 18° 69° (ENE) 00:49:07 437.505
NO-84 23 Oct 00:52:39 00:53:13 10° 120° (ESE) 00:53:46 435.350 FM
UKube-1 23 Oct 00:53:28 00:56:04 16° 65° (ENE) 00:58:41 .
RS-15 23 Oct 00:53:37 01:05:57 87° 300° (WNW) 01:18:20 29.354- 29.394
QB50P2 23 Oct 00:59:51 01:04:06 70° 285° (WNW) 01:08:18 145.880/145.840
NANOSAT C BR1 23 Oct 01:00:03 01:04:19 88° 277° (W) 01:08:31 145.865
BUGSAT 1 23 Oct 01:06:08 01:09:26 22° 95° (E) 01:12:40 437.445
DUCHIFAT 1 23 Oct 01:09:09 01:13:24 79° 284° (WNW) 01:17:35 145.980
VELOX 1 23 Oct 01:12:45 01:16:56 45° 260° (W) 01:21:11 145.980
Gurwin Techsat 1B 23 Oct 01:37:08 01:40:41 18° 92° (E) 01:44:12 435.225
M-CUBED/EXP-1 PRIME 23 Oct 01:41:29 01:43:00 12° 99° (E) 01:44:31 437.505
SPROUT 23 Oct 01:43:52 01:46:15 15° 268° (W) 01:48:38 437.525
DX 1 23 Oct 02:09:46 02:13:53 44° 261° (W) 02:18:02 434.975-435.025
EO-79 23 Oct 02:11:09 02:13:15 14° 296° (WNW) 02:15:22 145.935-145.965
MOZHAYETS 4 23 Oct 02:11:36 02:14:31 17° 65° (ENE) 02:17:25
50 SAT 23 Oct 02:16:33 02:19:01 20° 264° (W) 02:21:31 437.505
POLYITAN 1 23 Oct 02:17:13 02:18:47 12° 297° (WNW) 02:20:21 437.675
Oscar 19 23 Oct 02:20:46 02:25:53 69° 102° (ESE) 02:30:58 437.125/150
NO-84 23 Oct 02:25:42 02:29:59 83° 137° (SE) 02:34:17 435.350 FM
UKube-1 23 Oct 02:27:37 02:31:42 44° 260° (W) 02:35:50 .
BUGSAT 1 23 Oct 02:41:07 02:44:45 28° 290° (WNW) 02:48:19 437.445
AO-7 23 Oct 03:02:02 03:07:42 20° 93° (E) 03:13:20 .
ITUPSAT 1 23 Oct 03:06:43 03:11:25 56° 73° (ENE) 03:16:07 437.325
RS-15 23 Oct 03:09:48 03:20:22 32° 326° (NW) 03:30:52 29.354- 29.394
M-CUBED/EXP-1 PRIME 23 Oct 03:14:01 03:17:31 44° 291° (WNW) 03:21:15 437.505
Gurwin Techsat 1B 23 Oct 03:15:44 03:20:56 54° 288° (WNW) 03:26:05 435.225
BEESAT 23 Oct 03:20:06 03:24:53 79° 75° (ENE) 03:29:42 436.000
MOZHAYETS 4 23 Oct 03:46:46 03:51:15 48° 261° (W) 03:55:45
Oscar 19 23 Oct 04:01:53 04:04:35 15° 298° (WNW) 04:07:17 437.125/150
NO-84 23 Oct 04:04:39 04:07:52 20° 332° (NNW) 04:11:02 435.350 FM
CUBESAT XI-V 23 Oct 04:05:49 04:10:20 56° 74° (ENE) 04:14:51 437.345
ITAMSAT 1 23 Oct 04:39:01 04:44:17 84° 104° (ESE) 04:49:31 435.822/435.867
ITUPSAT 1 23 Oct 04:46:55 04:49:32 15° 268° (W) 04:52:11 437.325
KKS-1 23 Oct 04:51:57 04:56:13 50° 73° (ENE) 05:00:32 437.445
AO-7 23 Oct 04:52:54 05:01:14 81° 290° (WNW) 05:09:34 .
STARS 23 Oct 05:16:16 05:20:17 36° 70° (ENE) 05:24:19 437.465
RS-15 23 Oct 05:30:29 05:38:32 19° 1° (N) 05:46:24 29.354- 29.394
CUBESAT XI-V 23 Oct 05:45:48 05:48:00 13° 269° (W) 05:50:14 437.345
DOVE 4 23 Oct 05:49:09 05:54:12 61° 100° (E) 05:59:25 437.250
SO-50 23 Oct 06:00:24 06:04:44 52° 117° (ESE) 06:09:06 436.795
XW-2F 23 Oct 06:01:31 06:03:21 13° 92° (E) 06:05:09 145.980 - 146.000
O/OREOS (USA 219) 23 Oct 06:01:32 06:06:05 57° 66° (ENE) 06:10:34 437.305
STRAND 1 23 Oct 06:12:10 06:15:08 16° 62° (ENE) 06:18:05 437.568
LilacSat-2 23 Oct 06:12:26 06:15:22 21° 95° (E) 06:18:17 437.200
XW-2D 23 Oct 06:15:27 06:18:26 22° 95° (E) 06:21:23 145.860 - 145.880
ITAMSAT 1 23 Oct 06:20:55 06:22:59 12° 301° (WNW) 06:25:03 435.822/435.867
XW-2B 23 Oct 06:28:43 06:32:04 31° 97° (E) 06:35:24 145.730 - 145.750
KKS-1 23 Oct 06:30:44 06:33:03 14° 268° (W) 06:35:22 437.445
PCSat 23 Oct 06:34:06 06:37:13 16° 104° (ESE) 06:40:20 145.827
AO-7 23 Oct 06:47:37 06:52:46 18° 309° (NW) 06:57:55 .
XW-2C 23 Oct 06:51:52 06:55:36 66° 101° (E) 06:59:18 145.795 - 145.815
STARS 23 Oct 06:53:34 06:56:42 19° 266° (W) 06:59:51 437.465
JUGNU 23 Oct 06:59:13 07:00:38 11° 181° (S) 07:02:02 437.505
CUTE-I 23 Oct 07:10:03 07:15:27 72° 103° (ESE) 07:20:48 437.470
CUBEBUG 2 23 Oct 07:13:31 07:15:53 14° 90° (E) 07:18:12 437.445
HO-68 23 Oct 07:15:05 07:21:28 33° 97° (E) 07:27:46 435.675
CUTE 1.7 + AOD 2 23 Oct 07:15:24 07:18:50 24° 95° (E) 07:22:16 437.475
SEEDS 23 Oct 07:17:10 07:19:35 15° 92° (E) 07:22:01 437.485
NO-84 23 Oct 07:24:44 07:25:46 11° 14° (NNE) 07:26:46 435.350 FM
KAITUO 1B 23 Oct 07:26:39 07:30:18 58° 284° (WNW) 07:33:54 145.475/437.950
DOVE 4 23 Oct 07:28:17 07:31:23 17° 295° (WNW) 07:34:33 437.250
XW-2F 23 Oct 07:34:10 07:37:35 35° 287° (WNW) 07:40:59 145.980 - 146.000
NUDT-PHONESAT 23 Oct 07:35:37 07:39:08 46° 286° (WNW) 07:42:37 437.300
SO-50 23 Oct 07:42:17 07:45:28 19° 315° (NW) 07:48:42 436.795
O/OREOS (USA 219) 23 Oct 07:42:53 07:44:55 13° 262° (W) 07:46:57 437.305
UWE-3 23 Oct 07:44:28 07:47:19 17° 92° (E) 07:50:07 435.000/436.395/437.385
RS-15 23 Oct 07:45:46 07:56:23 34° 36° (NE) 08:06:28 29.354- 29.394
LilacSat-2 23 Oct 07:46:34 07:49:33 23° 290° (WNW) 07:52:32 437.200
STRAND 1 23 Oct 07:48:39 07:53:44 64° 258° (WSW) 07:58:52 437.568
XW-2D 23 Oct 07:49:35 07:52:29 22° 290° (WNW) 07:55:23 145.860 - 145.880
FO-29 23 Oct 07:54:56 07:59:05 24° 63° (ENE) 08:03:31 435.910
XW-2B 23 Oct 08:03:39 08:05:58 16° 292° (WNW) 08:08:19 145.730 - 145.750
PCSat 23 Oct 08:14:37 08:19:59 66° 300° (WNW) 08:25:24 145.827
nSIGHT-1 23 Oct 08:15:48 08:18:29 25° 133° (SE) 08:21:11 .
XW-2A 23 Oct 08:19:21 08:22:33 43° 99° (E) 08:25:43 145.665 - 145.685
AO-73 23 Oct 08:26:24 08:29:45 22° 94° (E) 08:33:02 145.935
CUBEBUG 2 23 Oct 08:48:21 08:52:49 51° 287° (WNW) 08:57:07 437.445
ZACube-1 23 Oct 08:49:50 08:54:02 47° 99° (E) 08:58:06 437.345
CUTE 1.7 + AOD 2 23 Oct 08:51:06 08:54:35 26° 290° (WNW) 08:58:04 437.475
SEEDS 23 Oct 08:51:31 08:55:26 40° 287° (WNW) 08:59:20 437.485
CUTE-I 23 Oct 08:51:53 08:54:51 15° 299° (WNW) 08:57:46 437.470
YUBILEINY 23 Oct 08:53:34 09:01:47 50° 89° (E) 09:10:03 435.215
ISS 23 Oct 08:56:18 08:59:30 61° 139° (SE) 09:02:43 437.550
NO-84 23 Oct 09:00:39 09:04:14 33° 35° (NE) 09:07:34 435.350 FM
HO-68 23 Oct 09:02:30 09:09:16 46° 293° (WNW) 09:16:01 435.675
AAUSAT CUBESAT 2 23 Oct 09:05:19 09:09:25 66° 284° (WNW) 09:13:31 437.432
UWE-3 23 Oct 09:19:46 09:23:57 40° 288° (WNW) 09:28:00 435.000/436.395/437.385
Oscar 11 23 Oct 09:20:42 09:24:58 63° 101° (E) 09:29:13 .
SRMSAT 23 Oct 09:28:26 09:29:54 11° 178° (S) 09:31:22 437.500
UNISAT 6 23 Oct 09:32:46 09:37:15 49° 73° (ENE) 09:41:48 437.425
PRISM 23 Oct 09:38:58 09:42:06 22° 68° (ENE) 09:45:16 437.425
FO-29 23 Oct 09:39:00 09:43:54 40° 263° (W) 09:49:12 435.910
TIGRISAT 23 Oct 09:46:30 09:51:06 63° 74° (ENE) 09:55:45 435.000
nSIGHT-1 23 Oct 09:51:46 09:54:40 32° 329° (NNW) 09:57:36 .
RS-15 23 Oct 09:58:22 10:10:17 82° 242° (WSW) 10:21:30 29.354- 29.394
EO-88 23 Oct 09:59:19 10:01:35 16° 94° (E) 10:03:51 145.990 - 145.960
AO-73 23 Oct 10:02:15 10:05:58 29° 290° (WNW) 10:09:36 145.935
PCSat 23 Oct 10:02:36 10:04:27 12° 320° (NW) 10:06:17 145.827
DELFI C3 23 Oct 10:02:55 10:06:38 38° 98° (E) 10:10:21 145.870
Max Valier Satellite 23 Oct 10:15:48 10:19:13 37° 98° (E) 10:22:37 145.860
ZACube-1 23 Oct 10:27:28 10:29:52 15° 295° (WNW) 10:32:15 437.345
ISS 23 Oct 10:33:44 10:36:12 20° 336° (NNW) 10:38:42 437.550
NO-84 23 Oct 10:38:19 10:41:29 26° 234° (SW) 10:44:26 435.350 FM
AIST 2D 23 Oct 10:39:32 10:42:18 22° 71° (ENE) 10:45:05 435.315
YUBILEINY 23 Oct 10:51:04 10:58:46 35° 288° (WNW) 11:06:34 435.215
Oscar 11 23 Oct 10:59:10 11:00:32 11° 297° (WNW) 11:01:53 .
UNISAT 6 23 Oct 11:11:23 11:14:12 16° 268° (W) 11:17:03 437.425
PRISM 23 Oct 11:13:48 11:17:14 26° 263° (W) 11:20:40 437.425
BEESAT 2 23 Oct 11:23:32 11:26:21 18° 111° (ESE) 11:29:10 435.950
EO-79 23 Oct 11:24:54 11:28:41 32° 71° (ENE) 11:32:32 145.935-145.965
AO-85 23 Oct 11:25:45 11:26:28 10° 108° (ESE) 11:27:12 145.980
TIGRISAT 23 Oct 11:26:17 11:28:09 12° 270° (W) 11:30:03 435.000
POLYITAN 1 23 Oct 11:30:26 11:34:23 37° 72° (ENE) 11:38:22 437.675
BEESAT 3 23 Oct 11:30:52 11:34:50 84° 120° (ESE) 11:38:53 437.485
nSIGHT-1 23 Oct 11:30:58 11:31:44 11° 349° (NNW) 11:32:30 .
EO-88 23 Oct 11:32:07 11:35:15 28° 288° (WNW) 11:38:23 145.990 - 145.960
DELFI C3 23 Oct 11:38:42 11:41:03 15° 293° (WNW) 11:43:23 145.870
NANOSAT C BR1 23 Oct 11:50:24 11:54:34 57° 74° (ENE) 11:58:45 145.865
QB50P2 23 Oct 11:50:38 11:54:53 73° 76° (ENE) 11:59:10 145.880/145.840
Max Valier Satellite 23 Oct 11:50:56 11:52:41 13° 293° (WNW) 11:54:25 145.860
ESTCUBE 1 23 Oct 11:52:40 11:56:49 35° 98° (E) 12:00:55 437.505/2401.250
BUGSAT 1 23 Oct 11:55:31 11:57:47 14° 65° (ENE) 12:00:03 437.445
DUCHIFAT 1 23 Oct 11:59:09 12:03:20 62° 75° (ENE) 12:07:33 145.980
Oscar 19 23 Oct 12:01:41 12:02:58 11° 59° (ENE) 12:04:15 437.125/150
LO-87 23 Oct 12:10:15 12:13:53 84° 283° (WNW) 12:17:29 145.935 - 145.965
AIST 2D 23 Oct 12:12:54 12:15:24 18° 265° (W) 12:17:56 435.315
RS-15 23 Oct 12:13:46 12:20:39 18° 263° (W) 12:27:23 29.354- 29.394
M-CUBED/EXP-1 PRIME 23 Oct 12:27:32 12:28:20 11° 61° (ENE) 12:29:07 437.505
Gurwin Techsat 1B 23 Oct 12:56:52 13:01:13 27° 66° (ENE) 13:05:35 435.225
BEESAT 2 23 Oct 13:00:04 13:03:47 36° 307° (NW) 13:07:34 435.950
EO-79 23 Oct 13:01:21 13:04:29 20° 266° (W) 13:07:39 145.935-145.965
AO-85 23 Oct 13:02:29 13:06:17 55° 304° (NW) 13:10:11 145.980
VELOX 1 23 Oct 13:03:37 13:07:42 34° 98° (E) 13:11:44 145.980
POLYITAN 1 23 Oct 13:07:25 13:10:16 17° 267° (W) 13:13:08 437.675
nSIGHT-1 23 Oct 13:09:05 13:09:13 10° 9° (N) 13:09:21 .
BEESAT 3 23 Oct 13:11:36 13:12:57 11° 318° (NW) 13:14:17 437.485
SPROUT 23 Oct 13:28:08 13:32:26 80° 286° (WNW) 13:36:43 437.525
BUGSAT 1 23 Oct 13:28:38 13:32:41 48° 261° (W) 13:36:48 437.445
NANOSAT C BR1 23 Oct 13:29:16 13:30:36 11° 269° (W) 13:31:55 145.865
ESTCUBE 1 23 Oct 13:30:03 13:33:21 21° 293° (WNW) 13:36:39 437.505/2401.250
50 SAT 23 Oct 13:36:04 13:38:24 18° 95° (E) 13:40:42 437.505
Oscar 19 23 Oct 13:36:19 13:41:29 88° 76° (ENE) 13:46:40 437.125/150
DUCHIFAT 1 23 Oct 13:39:02 13:39:22 10° 270° (W) 13:39:41 145.980
ISS 23 Oct 13:49:39 13:51:21 13° 17° (NNE) 13:53:03 437.550
DX 1 23 Oct 13:58:52 14:02:49 32° 98° (E) 14:06:45 434.975-435.025
M-CUBED/EXP-1 PRIME 23 Oct 13:59:18 14:02:27 37° 255° (WSW) 14:05:32 437.505
AO-7 23 Oct 13:59:55 14:06:33 28° 57° (ENE) 14:13:11 .
UKube-1 23 Oct 14:15:35 14:19:26 31° 97° (E) 14:23:16 .
ITAMSAT 1 23 Oct 14:19:26 14:22:10 14° 61° (ENE) 14:24:54 435.822/435.867
SO-50 23 Oct 14:32:31 14:36:46 35° 52° (NE) 14:41:03 436.795
Gurwin Techsat 1B 23 Oct 14:36:04 14:40:57 37° 262° (W) 14:45:53 435.225
VELOX 1 23 Oct 14:40:34 14:43:53 21° 293° (WNW) 14:47:13 145.980
nSIGHT-1 23 Oct 14:43:33 14:46:21 27° 29° (NNE) 14:49:08 .
50 SAT 23 Oct 15:08:05 15:10:36 20° 290° (WNW) 15:13:06 437.505
ITUPSAT 1 23 Oct 15:09:41 15:12:28 15° 92° (E) 15:15:13 437.325
BEESAT 23 Oct 15:22:04 15:25:42 21° 94° (E) 15:29:18 436.000
PCSat 23 Oct 15:22:09 15:24:40 13° 42° (NE) 15:27:11 145.827
ISS 23 Oct 15:25:11 15:28:25 54° 35° (NE) 15:31:37 437.550
DX 1 23 Oct 15:35:27 15:38:47 22° 293° (WNW) 15:42:06 434.975-435.025
MOZHAYETS 4 23 Oct 15:42:46 15:47:05 40° 98° (E) 15:51:22
AO-7 23 Oct 15:50:25 15:58:39 68° 255° (WSW) 16:06:56 .
UKube-1 23 Oct 15:51:55 15:55:15 22° 293° (WNW) 15:58:36 .
ITAMSAT 1 23 Oct 15:55:49 16:00:59 72° 257° (WSW) 16:06:12 435.822/435.867
CUBESAT XI-V 23 Oct 16:04:43 16:07:19 15° 92° (E) 16:09:55 437.345
SO-50 23 Oct 16:13:15 16:17:04 25° 248° (WSW) 16:20:54 436.795
nSIGHT-1 23 Oct 16:19:43 16:22:38 32° 225° (SW) 16:25:31 .
ITUPSAT 1 23 Oct 16:45:55 16:50:34 52° 288° (WNW) 16:55:11 437.325
KKS-1 23 Oct 16:47:08 16:47:32 10° 90° (E) 16:47:57 437.445
DOVE 4 23 Oct 16:53:51 16:57:53 48° 73° (ENE) 17:02:08 437.250
CUTE-I 23 Oct 16:54:13 16:56:43 13° 60° (ENE) 16:59:13 437.470
XW-2D 23 Oct 16:58:07 16:58:29 10° 65° (ENE) 16:58:51 145.860 - 145.880
BEESAT 23 Oct 16:59:09 17:03:33 37° 290° (WNW) 17:07:55 436.000
ISS 23 Oct 17:02:40 17:04:34 15° 230° (SW) 17:06:27 437.550
PCSat 23 Oct 17:03:32 17:08:59 77° 62° (ENE) 17:14:23 145.827
XW-2B 23 Oct 17:09:56 17:11:57 14° 67° (ENE) 17:13:57 145.730 - 145.750
MOZHAYETS 4 23 Oct 17:20:45 17:23:55 19° 294° (WNW) 17:27:04
XW-2C 23 Oct 17:32:05 17:35:16 26° 71° (ENE) 17:38:26 145.795 - 145.815
CUBESAT XI-V 23 Oct 17:40:30 17:44:57 50° 287° (WNW) 17:49:23 437.345
HO-68 23 Oct 17:43:39 17:48:58 23° 59° (ENE) 17:54:17 435.675
AO-7 23 Oct 17:51:39 17:52:47 10° 273° (W) 17:53:55 .
KAITUO 1B 23 Oct 18:04:56 18:08:31 48° 75° (ENE) 18:12:06 145.475/437.950
CUTE 1.7 + AOD 2 23 Oct 18:07:44 18:10:15 16° 66° (ENE) 18:12:47 437.475
CUBEBUG 2 23 Oct 18:11:12 18:12:54 12° 62° (ENE) 18:14:36 437.445
NUDT-PHONESAT 23 Oct 18:12:49 18:16:28 59° 75° (ENE) 18:20:07 437.300
XW-2F 23 Oct 18:12:57 18:16:43 83° 77° (ENE) 18:20:29 145.980 - 146.000
KKS-1 23 Oct 18:20:03 18:24:31 69° 286° (WNW) 18:28:58 437.445
LilacSat-2 23 Oct 18:26:08 18:29:54 56° 260° (W) 18:33:39 437.200
XW-2D 23 Oct 18:28:26 18:32:09 54° 260° (W) 18:35:52 145.860 - 145.880
CUTE-I 23 Oct 18:30:44 18:36:03 79° 257° (WSW) 18:41:24 437.470
DOVE 4 23 Oct 18:33:57 18:35:56 13° 270° (W) 18:37:57 437.250
UWE-3 23 Oct 18:40:45 18:43:06 14° 64° (ENE) 18:45:29 435.000/436.395/437.385
STARS 23 Oct 18:42:14 18:46:42 83° 102° (ESE) 18:51:08 437.465
XW-2B 23 Oct 18:42:15 18:45:47 37° 262° (W) 18:49:20 145.730 - 145.750
PCSat 23 Oct 18:49:14 18:51:38 13° 257° (WSW) 18:54:03 145.827
XW-2A 23 Oct 18:50:38 18:52:14 13° 67° (ENE) 18:53:50 145.665 - 145.685
XW-2C 23 Oct 19:06:39 19:09:24 19° 266° (W) 19:12:10 145.795 - 145.815
